Year,Month,Day,Hour,Minute,Value (Times are PST for temperature in C)
2019,04,15,00,00,0.60
2019,04,15,00,01,0.50
2019,04,15,00,02,0.50
2019,04,15,00,03,0.40
2019,04,15,00,04,0.40
2019,04,15,00,05,0.40
2019,04,15,00,06,0.40
2019,04,15,00,07,0.40
2019,04,15,00,08,0.40
2019,04,15,00,09,0.30
2019,04,15,00,10,0.30
2019,04,15,00,11,0.30
2019,04,15,00,12,0.30
2019,04,15,00,13,0.20
2019,04,15,00,14,0.20
2019,04,15,00,15,0.20
2019,04,15,00,16,0.20
2019,04,15,00,17,0.20
2019,04,15,00,18,0.10
2019,04,15,00,19,0.10
2019,04,15,00,20,0.10
2019,04,15,00,21,0.00
2019,04,15,00,22,0.00
2019,04,15,00,23,-0.10
2019,04,15,00,24,-0.10
2019,04,15,00,25,-0.10
2019,04,15,00,26,-0.10
2019,04,15,00,27,-0.10
2019,04,15,00,28,-0.10
2019,04,15,00,29,-0.10
2019,04,15,00,30,-0.10
2019,04,15,00,31,-0.20
2019,04,15,00,32,-0.20
2019,04,15,00,33,-0.20
2019,04,15,00,34,-0.30
2019,04,15,00,35,-0.30
2019,04,15,00,36,-0.30
2019,04,15,00,37,-0.30
2019,04,15,00,38,-0.30
2019,04,15,00,39,-0.40
2019,04,15,00,40,-0.40
2019,04,15,00,41,-0.40
2019,04,15,00,42,-0.50
2019,04,15,00,43,-0.50
2019,04,15,00,44,-0.50
2019,04,15,00,45,-0.60
2019,04,15,00,46,-0.60
2019,04,15,00,47,-0.60
2019,04,15,00,48,-0.60
2019,04,15,00,49,-0.60
2019,04,15,00,50,-0.60
2019,04,15,00,51,-0.60
2019,04,15,00,52,-0.60
2019,04,15,00,53,-0.60
2019,04,15,00,54,-0.60
2019,04,15,00,55,-0.70
2019,04,15,00,56,-0.70
2019,04,15,00,57,-0.70
2019,04,15,00,58,-0.70
2019,04,15,00,59,-0.70
2019,04,15,01,00,-0.70
2019,04,15,01,01,-0.70
2019,04,15,01,02,-0.70
2019,04,15,01,03,-0.70
2019,04,15,01,04,-0.70
2019,04,15,01,05,-0.70
2019,04,15,01,06,-0.70
2019,04,15,01,07,-0.70
2019,04,15,01,08,-0.70
2019,04,15,01,09,-0.70
2019,04,15,01,10,-0.70
2019,04,15,01,11,-0.70
2019,04,15,01,12,-0.70
2019,04,15,01,13,-0.70
2019,04,15,01,14,-0.70
2019,04,15,01,15,-0.70
2019,04,15,01,16,-0.70
2019,04,15,01,17,-0.70
2019,04,15,01,18,-0.70
2019,04,15,01,19,-0.70
2019,04,15,01,20,-0.80
2019,04,15,01,21,-0.80
2019,04,15,01,22,-0.80
2019,04,15,01,23,-0.80
2019,04,15,01,24,-0.80
2019,04,15,01,25,-0.80
2019,04,15,01,26,-0.80
2019,04,15,01,27,-0.80
2019,04,15,01,28,-0.90
2019,04,15,01,29,-0.90
2019,04,15,01,30,-0.90
2019,04,15,01,31,-0.90
2019,04,15,01,32,-0.90
2019,04,15,01,33,-0.90
2019,04,15,01,34,-0.90
2019,04,15,01,35,-0.90
2019,04,15,01,36,-0.90
2019,04,15,01,37,-0.90
2019,04,15,01,38,-0.90
2019,04,15,01,39,-0.90
2019,04,15,01,40,-1.00
2019,04,15,01,41,-1.00
2019,04,15,01,42,-1.00
2019,04,15,01,43,-1.00
2019,04,15,01,44,-1.00
2019,04,15,01,45,-1.10
2019,04,15,01,46,-1.10
2019,04,15,01,47,-1.10
2019,04,15,01,48,-1.10
2019,04,15,01,49,-1.10
2019,04,15,01,50,-1.10
2019,04,15,01,51,-1.20
2019,04,15,01,52,-1.20
2019,04,15,01,53,-1.20
2019,04,15,01,54,-1.20
2019,04,15,01,55,-1.20
2019,04,15,01,56,-1.20
2019,04,15,01,57,-1.20
2019,04,15,01,58,-1.30
2019,04,15,01,59,-1.30
2019,04,15,02,00,-1.30
2019,04,15,02,01,-1.30
2019,04,15,02,02,-1.30
2019,04,15,02,03,-1.30
2019,04,15,02,04,-1.30
2019,04,15,02,05,-1.30
2019,04,15,02,06,-1.30
2019,04,15,02,07,-1.30
2019,04,15,02,08,-1.30
2019,04,15,02,09,-1.30
2019,04,15,02,10,-1.30
2019,04,15,02,11,-1.40
2019,04,15,02,12,-1.40
2019,04,15,02,13,-1.40
2019,04,15,02,14,-1.40
2019,04,15,02,15,-1.40
2019,04,15,02,16,-1.40
2019,04,15,02,17,-1.40
2019,04,15,02,18,-1.40
2019,04,15,02,19,-1.40
2019,04,15,02,20,-1.40
2019,04,15,02,21,-1.40
2019,04,15,02,22,-1.40
2019,04,15,02,23,-1.40
2019,04,15,02,24,-1.40
2019,04,15,02,25,-1.40
2019,04,15,02,26,-1.40
2019,04,15,02,27,-1.50
2019,04,15,02,28,-1.50
2019,04,15,02,29,-1.50
2019,04,15,02,30,-1.50
2019,04,15,02,31,-1.50
2019,04,15,02,32,-1.50
2019,04,15,02,33,-1.50
2019,04,15,02,34,-1.50
2019,04,15,02,35,-1.50
2019,04,15,02,36,-1.50
2019,04,15,02,37,-1.50
2019,04,15,02,38,-1.50
2019,04,15,02,39,-1.50
2019,04,15,02,40,-1.50
2019,04,15,02,41,-1.50
2019,04,15,02,42,-1.50
2019,04,15,02,43,-1.50
2019,04,15,02,44,-1.50
2019,04,15,02,45,-1.50
2019,04,15,02,46,-1.50
2019,04,15,02,47,-1.40
2019,04,15,02,48,-1.40
2019,04,15,02,49,-1.40
2019,04,15,02,50,-1.40
2019,04,15,02,51,-1.40
2019,04,15,02,52,-1.40
2019,04,15,02,53,-1.40
2019,04,15,02,54,-1.40
2019,04,15,02,55,-1.40
2019,04,15,02,56,-1.40
2019,04,15,02,57,-1.40
2019,04,15,02,58,-1.40
2019,04,15,02,59,-1.40
2019,04,15,03,00,-1.40
2019,04,15,03,01,-1.50
2019,04,15,03,02,-1.50
2019,04,15,03,03,-1.50
2019,04,15,03,04,-1.50
2019,04,15,03,05,-1.50
2019,04,15,03,06,-1.50
2019,04,15,03,07,-1.50
2019,04,15,03,08,-1.60
2019,04,15,03,09,-1.60
2019,04,15,03,10,-1.60
2019,04,15,03,11,-1.60
2019,04,15,03,12,-1.60
2019,04,15,03,13,-1.60
2019,04,15,03,14,-1.70
2019,04,15,03,15,-1.70
2019,04,15,03,16,-1.70
2019,04,15,03,17,-1.70
2019,04,15,03,18,-1.70
2019,04,15,03,19,-1.70
2019,04,15,03,20,-1.70
2019,04,15,03,21,-1.70
2019,04,15,03,22,-1.80
2019,04,15,03,23,-1.80
2019,04,15,03,24,-1.80
2019,04,15,03,25,-1.80
2019,04,15,03,26,-1.80
2019,04,15,03,27,-1.80
2019,04,15,03,28,-1.80
2019,04,15,03,29,-1.90
2019,04,15,03,30,-1.90
2019,04,15,03,31,-1.90
2019,04,15,03,32,-1.90
2019,04,15,03,33,-1.90
2019,04,15,03,34,-1.90
2019,04,15,03,35,-1.90
2019,04,15,03,36,-1.90
2019,04,15,03,37,-2.00
2019,04,15,03,38,-2.00
2019,04,15,03,39,-2.00
2019,04,15,03,40,-2.00
2019,04,15,03,41,-2.00
2019,04,15,03,42,-2.00
2019,04,15,03,43,-2.10
2019,04,15,03,44,-2.10
2019,04,15,03,45,-2.10
2019,04,15,03,46,-2.10
2019,04,15,03,47,-2.10
2019,04,15,03,48,-2.10
2019,04,15,03,49,-2.10
2019,04,15,03,50,-2.10
2019,04,15,03,51,-2.10
2019,04,15,03,52,-2.10
2019,04,15,03,53,-2.10
2019,04,15,03,54,-2.20
2019,04,15,03,55,-2.20
2019,04,15,03,56,-2.20
2019,04,15,03,57,-2.20
2019,04,15,03,58,-2.20
2019,04,15,03,59,-2.30
2019,04,15,04,00,-2.30
2019,04,15,04,01,-2.30
2019,04,15,04,02,-2.30
2019,04,15,04,03,-2.30
2019,04,15,04,04,-2.30
2019,04,15,04,05,-2.30
2019,04,15,04,06,-2.30
2019,04,15,04,07,-2.30
2019,04,15,04,08,-2.40
2019,04,15,04,09,-2.40
2019,04,15,04,10,-2.40
2019,04,15,04,11,-2.40
2019,04,15,04,12,-2.40
2019,04,15,04,13,-2.40
2019,04,15,04,14,-2.40
2019,04,15,04,15,-2.40
2019,04,15,04,16,-2.50
2019,04,15,04,17,-2.50
2019,04,15,04,18,-2.50
2019,04,15,04,19,-2.50
2019,04,15,04,20,-2.50
2019,04,15,04,21,-2.50
2019,04,15,04,22,-2.50
2019,04,15,04,23,-2.60
2019,04,15,04,24,-2.60
2019,04,15,04,25,-2.60
2019,04,15,04,26,-2.60
2019,04,15,04,27,-2.60
2019,04,15,04,28,-2.60
2019,04,15,04,29,-2.60
2019,04,15,04,30,-2.60
2019,04,15,04,31,-2.60
2019,04,15,04,32,-2.60
2019,04,15,04,33,-2.60
2019,04,15,04,34,-2.60
2019,04,15,04,35,-2.60
2019,04,15,04,36,-2.60
2019,04,15,04,37,-2.60
2019,04,15,04,38,-2.60
2019,04,15,04,39,-2.60
2019,04,15,04,40,-2.60
2019,04,15,04,41,-2.60
2019,04,15,04,42,-2.60
2019,04,15,04,43,-2.60
2019,04,15,04,44,-2.60
2019,04,15,04,45,-2.60
2019,04,15,04,46,-2.60
2019,04,15,04,47,-2.60
2019,04,15,04,48,-2.60
2019,04,15,04,49,-2.60
2019,04,15,04,50,-2.60
2019,04,15,04,51,-2.60
2019,04,15,04,52,-2.60
2019,04,15,04,53,-2.70
2019,04,15,04,54,-2.70
2019,04,15,04,55,-2.70
2019,04,15,04,56,-2.70
2019,04,15,04,57,-2.70
2019,04,15,04,58,-2.70
2019,04,15,04,59,-2.70
2019,04,15,05,00,-2.70
2019,04,15,05,01,-2.70
2019,04,15,05,02,-2.70
2019,04,15,05,03,-2.70
2019,04,15,05,04,-2.70
2019,04,15,05,05,-2.70
2019,04,15,05,06,-2.80
2019,04,15,05,07,-2.80
2019,04,15,05,08,-2.80
2019,04,15,05,09,-2.80
2019,04,15,05,10,-2.80
2019,04,15,05,11,-2.80
2019,04,15,05,12,-2.80
2019,04,15,05,13,-2.80
2019,04,15,05,14,-2.80
2019,04,15,05,15,-2.90
2019,04,15,05,16,-2.90
2019,04,15,05,17,-2.90
2019,04,15,05,18,-2.90
2019,04,15,05,19,-2.90
2019,04,15,05,20,-2.90
2019,04,15,05,21,-2.90
2019,04,15,05,22,-2.90
2019,04,15,05,23,-3.00
2019,04,15,05,24,-2.90
2019,04,15,05,25,-3.00
2019,04,15,05,26,-3.00
2019,04,15,05,27,-3.00
2019,04,15,05,28,-3.00
2019,04,15,05,29,-3.00
2019,04,15,05,30,-3.00
2019,04,15,05,31,-3.00
2019,04,15,05,32,-3.10
2019,04,15,05,33,-3.10
2019,04,15,05,34,-3.10
2019,04,15,05,35,-3.10
2019,04,15,05,36,-3.10
2019,04,15,05,37,-3.10
2019,04,15,05,38,-3.10
2019,04,15,05,39,-3.20
2019,04,15,05,40,-3.20
2019,04,15,05,41,-3.20
2019,04,15,05,42,-3.20
2019,04,15,05,43,-3.20
2019,04,15,05,44,-3.20
2019,04,15,05,45,-3.20
2019,04,15,05,46,-3.20
2019,04,15,05,47,-3.20
2019,04,15,05,48,-3.20
2019,04,15,05,49,-3.30
2019,04,15,05,50,-3.30
2019,04,15,05,51,-3.30
2019,04,15,05,52,-3.30
2019,04,15,05,53,-3.30
2019,04,15,05,54,-3.30
2019,04,15,05,55,-3.30
2019,04,15,05,56,-3.30
2019,04,15,05,57,-3.30
2019,04,15,05,58,-3.30
2019,04,15,05,59,-3.30
2019,04,15,06,00,-3.30
2019,04,15,06,01,-3.30
2019,04,15,06,02,-3.30
2019,04,15,06,03,-3.30
2019,04,15,06,04,-3.30
2019,04,15,06,05,-3.30
2019,04,15,06,06,-3.30
2019,04,15,06,07,-3.30
2019,04,15,06,08,-3.30
2019,04,15,06,09,-3.30
2019,04,15,06,10,-3.40
2019,04,15,06,11,-3.40
2019,04,15,06,12,-3.40
2019,04,15,06,13,-3.40
2019,04,15,06,14,-3.40
2019,04,15,06,15,-3.40
2019,04,15,06,16,-3.40
2019,04,15,06,17,-3.50
2019,04,15,06,18,-3.50
2019,04,15,06,19,-3.50
2019,04,15,06,20,-3.50
2019,04,15,06,21,-3.60
2019,04,15,06,22,-3.60
2019,04,15,06,23,-3.60
2019,04,15,06,24,-3.60
2019,04,15,06,25,-3.60
2019,04,15,06,26,-3.60
2019,04,15,06,27,-3.60
2019,04,15,06,28,-3.60
2019,04,15,06,29,-3.60
2019,04,15,06,30,-3.70
2019,04,15,06,31,-3.70
2019,04,15,06,32,-3.70
2019,04,15,06,33,-3.70
2019,04,15,06,34,-3.70
2019,04,15,06,35,-3.70
2019,04,15,06,36,-3.70
2019,04,15,06,37,-3.70
2019,04,15,06,38,-3.70
2019,04,15,06,39,-3.70
2019,04,15,06,40,-3.70
2019,04,15,06,41,-3.70
2019,04,15,06,42,-3.70
2019,04,15,06,43,-3.70
2019,04,15,06,44,-3.80
2019,04,15,06,45,-3.80
2019,04,15,06,46,-3.80
2019,04,15,06,47,-3.80
2019,04,15,06,48,-3.80
2019,04,15,06,49,-3.80
2019,04,15,06,50,-3.80
2019,04,15,06,51,-3.80
2019,04,15,06,52,-3.80
2019,04,15,06,53,-3.80
2019,04,15,06,54,-3.80
2019,04,15,06,55,-3.80
2019,04,15,06,56,-3.80
2019,04,15,06,57,-3.80
2019,04,15,06,58,-3.80
2019,04,15,06,59,-3.80
2019,04,15,07,00,-3.80
2019,04,15,07,01,-3.80
2019,04,15,07,02,-3.80
2019,04,15,07,03,-3.80
2019,04,15,07,04,-3.80
2019,04,15,07,05,-3.80
2019,04,15,07,06,-3.80
2019,04,15,07,07,-3.80
2019,04,15,07,08,-3.80
2019,04,15,07,09,-3.80
2019,04,15,07,10,-3.80
2019,04,15,07,11,-3.80
2019,04,15,07,12,-3.80
2019,04,15,07,13,-3.90
2019,04,15,07,14,-3.90
2019,04,15,07,15,-3.90
2019,04,15,07,16,-3.90
2019,04,15,07,17,-3.90
2019,04,15,07,18,-3.90
2019,04,15,07,19,-3.90
2019,04,15,07,20,-4.00
2019,04,15,07,21,-3.90
2019,04,15,07,22,-3.90
2019,04,15,07,23,-3.90
2019,04,15,07,24,-3.90
2019,04,15,07,25,-3.90
2019,04,15,07,26,-3.90
2019,04,15,07,27,-3.90
2019,04,15,07,28,-4.00
2019,04,15,07,29,-4.10
2019,04,15,07,30,-4.10
2019,04,15,07,31,-4.10
2019,04,15,07,32,-4.10
2019,04,15,07,33,-4.10
2019,04,15,07,34,-4.10
2019,04,15,07,35,-4.20
2019,04,15,07,36,-4.20
2019,04,15,07,37,-4.20
2019,04,15,07,38,-4.20
2019,04,15,07,39,-4.20
2019,04,15,07,40,-4.20
2019,04,15,07,41,-4.20
2019,04,15,07,42,-4.20
2019,04,15,07,43,-4.30
2019,04,15,07,44,-4.30
2019,04,15,07,45,-4.30
2019,04,15,07,46,-4.30
2019,04,15,07,47,-4.30
2019,04,15,07,48,-4.30
2019,04,15,07,49,-4.30
2019,04,15,07,50,-4.30
2019,04,15,07,51,-4.30
2019,04,15,07,52,-4.40
2019,04,15,07,53,-4.40
2019,04,15,07,54,-4.40
2019,04,15,07,55,-4.40
2019,04,15,07,56,-4.40
2019,04,15,07,57,-4.40
2019,04,15,07,58,-4.40
2019,04,15,07,59,-4.50
2019,04,15,08,00,-4.50
2019,04,15,08,01,-4.50
2019,04,15,08,02,-4.50
2019,04,15,08,03,-4.50
2019,04,15,08,04,-4.50
2019,04,15,08,05,-4.50
2019,04,15,08,06,-4.50
2019,04,15,08,07,-4.50
2019,04,15,08,08,-4.50
2019,04,15,08,09,-4.50
2019,04,15,08,10,-4.50
2019,04,15,08,11,-4.50
2019,04,15,08,12,-4.50
2019,04,15,08,13,-4.50
2019,04,15,08,14,-4.50
2019,04,15,08,15,-4.50
2019,04,15,08,16,-4.50
2019,04,15,08,17,-4.50
2019,04,15,08,18,-4.50
2019,04,15,08,19,-4.50
2019,04,15,08,20,-4.50
2019,04,15,08,21,-4.50
2019,04,15,08,22,-4.50
2019,04,15,08,23,-4.50
2019,04,15,08,24,-4.50
2019,04,15,08,25,-4.50
2019,04,15,08,26,-4.50
2019,04,15,08,27,-4.40
2019,04,15,08,28,-4.40
2019,04,15,08,29,-4.40
2019,04,15,08,30,-4.40
2019,04,15,08,31,-4.40
2019,04,15,08,32,-4.30
2019,04,15,08,33,-4.30
2019,04,15,08,34,-4.30
2019,04,15,08,35,-4.30
2019,04,15,08,36,-4.30
2019,04,15,08,37,-4.20
2019,04,15,08,38,-4.20
2019,04,15,08,39,-4.20
2019,04,15,08,40,-4.20
2019,04,15,08,41,-4.20
2019,04,15,08,42,-4.20
2019,04,15,08,43,-4.20
2019,04,15,08,44,-4.20
2019,04,15,08,45,-4.20
2019,04,15,08,46,-4.20
2019,04,15,08,47,-4.20
2019,04,15,08,48,-4.20
2019,04,15,08,49,-4.20
2019,04,15,08,50,-4.20
2019,04,15,08,51,-4.20
2019,04,15,08,52,-4.20
2019,04,15,08,53,-4.20
2019,04,15,08,54,-4.20
2019,04,15,08,55,-4.20
2019,04,15,08,56,-4.20
2019,04,15,08,57,-4.20
2019,04,15,08,58,-4.20
2019,04,15,08,59,-4.20
2019,04,15,09,00,-4.10
2019,04,15,09,01,-4.10
2019,04,15,09,02,-4.10
2019,04,15,09,03,-4.10
2019,04,15,09,04,-4.10
2019,04,15,09,05,-4.10
2019,04,15,09,06,-4.10
2019,04,15,09,07,-4.10
2019,04,15,09,08,-4.00
2019,04,15,09,09,-4.00
2019,04,15,09,10,-4.00
2019,04,15,09,11,-4.00
2019,04,15,09,12,-3.90
2019,04,15,09,13,-3.90
2019,04,15,09,14,-3.90
2019,04,15,09,15,-3.90
2019,04,15,09,16,-3.90
2019,04,15,09,17,-3.80
2019,04,15,09,18,-3.80
2019,04,15,09,19,-3.80
2019,04,15,09,20,-3.80
2019,04,15,09,21,-3.80
2019,04,15,09,22,-3.70
2019,04,15,09,23,-3.70
2019,04,15,09,24,-3.70
2019,04,15,09,25,-3.70
2019,04,15,09,26,-3.60
2019,04,15,09,27,-3.60
2019,04,15,09,28,-3.50
2019,04,15,09,29,-3.50
2019,04,15,09,30,-3.40
2019,04,15,09,31,-3.30
2019,04,15,09,32,-3.20
2019,04,15,09,33,-2.90
2019,04,15,09,34,-2.70
2019,04,15,09,35,-2.50
2019,04,15,09,36,-2.20
2019,04,15,09,37,-2.00
2019,04,15,09,38,-1.80
2019,04,15,09,39,-1.60
2019,04,15,09,40,-1.40
2019,04,15,09,41,-1.30
2019,04,15,09,42,-1.10
2019,04,15,09,43,-1.00
2019,04,15,09,44,-1.00
2019,04,15,09,45,-0.80
2019,04,15,09,46,-0.80
2019,04,15,09,47,-0.70
2019,04,15,09,48,-0.70
2019,04,15,09,49,-0.70
2019,04,15,09,50,-0.70
2019,04,15,09,51,-0.70
2019,04,15,09,52,-0.70
2019,04,15,09,53,-0.60
2019,04,15,09,54,-0.60
2019,04,15,09,55,-0.60
2019,04,15,09,56,-0.60
2019,04,15,09,57,-0.50
2019,04,15,09,58,-0.50
2019,04,15,09,59,-0.40
2019,04,15,10,00,-0.40
2019,04,15,10,01,-0.40
2019,04,15,10,02,-0.40
2019,04,15,10,03,-0.40
2019,04,15,10,04,-0.30
2019,04,15,10,05,-0.30
2019,04,15,10,06,-0.30
2019,04,15,10,07,-0.30
2019,04,15,10,08,-0.30
2019,04,15,10,09,-0.20
2019,04,15,10,10,-0.20
2019,04,15,10,11,-0.20
2019,04,15,10,12,-0.20
2019,04,15,10,13,-0.10
2019,04,15,10,14,-0.10
2019,04,15,10,15,-0.10
2019,04,15,10,16,0.00
2019,04,15,10,17,0.00
2019,04,15,10,18,0.10
2019,04,15,10,19,0.10
2019,04,15,10,20,0.10
2019,04,15,10,21,0.20
2019,04,15,10,22,0.20
2019,04,15,10,23,0.30
2019,04,15,10,24,0.30
2019,04,15,10,25,0.40
2019,04,15,10,26,0.40
2019,04,15,10,27,0.40
2019,04,15,10,28,0.40
2019,04,15,10,29,0.50
2019,04,15,10,30,0.50
2019,04,15,10,31,0.50
2019,04,15,10,32,0.60
2019,04,15,10,33,0.60
2019,04,15,10,34,0.60
2019,04,15,10,35,0.60
2019,04,15,10,36,0.60
2019,04,15,10,37,0.70
2019,04,15,10,38,0.70
2019,04,15,10,39,0.70
2019,04,15,10,40,0.70
2019,04,15,10,41,0.70
2019,04,15,10,42,0.70
2019,04,15,10,43,0.70
2019,04,15,10,44,0.70
2019,04,15,10,45,0.80
2019,04,15,10,46,0.80
2019,04,15,10,47,0.80
2019,04,15,10,48,0.80
2019,04,15,10,49,0.80
2019,04,15,10,50,0.90
2019,04,15,10,51,0.90
2019,04,15,10,52,0.90
2019,04,15,10,53,1.00
2019,04,15,10,54,1.00
2019,04,15,10,55,1.00
2019,04,15,10,56,1.10
2019,04,15,10,57,1.10
2019,04,15,10,58,1.20
2019,04,15,10,59,1.20
2019,04,15,11,00,1.30
2019,04,15,11,01,1.30
2019,04,15,11,02,1.40
2019,04,15,11,03,1.40
2019,04,15,11,04,1.50
2019,04,15,11,05,1.50
2019,04,15,11,06,1.60
2019,04,15,11,07,1.60
2019,04,15,11,08,1.70
2019,04,15,11,09,1.70
2019,04,15,11,10,1.70
2019,04,15,11,11,1.70
2019,04,15,11,12,1.80
2019,04,15,11,13,1.80
2019,04,15,11,14,1.80
2019,04,15,11,15,1.80
2019,04,15,11,16,1.90
2019,04,15,11,17,1.90
2019,04,15,11,18,1.90
2019,04,15,11,19,1.90
2019,04,15,11,20,2.00
2019,04,15,11,21,2.00
2019,04,15,11,22,2.10
2019,04,15,11,23,2.10
2019,04,15,11,24,2.10
2019,04,15,11,25,2.10
2019,04,15,11,26,2.20
2019,04,15,11,27,2.20
2019,04,15,11,28,2.20
2019,04,15,11,29,2.20
2019,04,15,11,30,2.30
2019,04,15,11,31,2.30
2019,04,15,11,32,2.30
2019,04,15,11,33,2.40
2019,04,15,11,34,2.40
2019,04,15,11,35,2.40
2019,04,15,11,36,2.50
2019,04,15,11,37,2.50
2019,04,15,11,38,2.50
2019,04,15,11,39,2.50
2019,04,15,11,40,2.50
2019,04,15,11,41,2.60
2019,04,15,11,42,2.60
2019,04,15,11,43,2.60
2019,04,15,11,44,2.70
2019,04,15,11,45,2.70
2019,04,15,11,46,2.70
2019,04,15,11,47,2.70
2019,04,15,11,48,2.80
2019,04,15,11,49,2.80
2019,04,15,11,50,2.80
2019,04,15,11,51,2.80
2019,04,15,11,52,2.80
2019,04,15,11,53,2.80
2019,04,15,11,54,2.80
2019,04,15,11,55,2.80
2019,04,15,11,56,2.80
2019,04,15,11,57,2.80
2019,04,15,11,58,2.80
2019,04,15,11,59,2.90
2019,04,15,12,00,2.90
2019,04,15,12,01,2.90
2019,04,15,12,02,2.90
2019,04,15,12,03,3.00
2019,04,15,12,04,3.00
2019,04,15,12,05,3.00
2019,04,15,12,06,3.10
2019,04,15,12,07,3.00
2019,04,15,12,08,3.00
2019,04,15,12,09,3.10
2019,04,15,12,10,3.10
2019,04,15,12,11,3.10
2019,04,15,12,12,3.20
2019,04,15,12,13,3.20
2019,04,15,12,14,3.30
2019,04,15,12,15,3.30
2019,04,15,12,16,3.40
2019,04,15,12,17,3.40
2019,04,15,12,18,3.40
2019,04,15,12,19,3.40
2019,04,15,12,20,3.50
2019,04,15,12,21,3.50
2019,04,15,12,22,3.60
2019,04,15,12,23,3.60
2019,04,15,12,24,3.60
2019,04,15,12,25,3.70
2019,04,15,12,26,3.70
2019,04,15,12,27,3.70
2019,04,15,12,28,3.80
2019,04,15,12,29,3.80
2019,04,15,12,30,3.90
2019,04,15,12,31,4.00
2019,04,15,12,32,4.00
2019,04,15,12,33,4.10
2019,04,15,12,34,4.10
2019,04,15,12,35,4.10
2019,04,15,12,36,4.10
2019,04,15,12,37,4.20
2019,04,15,12,38,4.20
2019,04,15,12,39,4.20
2019,04,15,12,40,4.20
2019,04,15,12,41,4.20
2019,04,15,12,42,4.20
2019,04,15,12,43,4.20
2019,04,15,12,44,4.20
2019,04,15,12,45,4.20
2019,04,15,12,46,4.20
2019,04,15,12,47,4.30
2019,04,15,12,48,4.30
2019,04,15,12,49,4.30
2019,04,15,12,50,4.40
2019,04,15,12,51,4.40
2019,04,15,12,52,4.40
2019,04,15,12,53,4.50
2019,04,15,12,54,4.50
2019,04,15,12,55,4.60
2019,04,15,12,56,4.60
2019,04,15,12,57,4.60
2019,04,15,12,58,4.60
2019,04,15,12,59,4.60
2019,04,15,13,00,4.60
2019,04,15,13,01,4.70
2019,04,15,13,02,4.70
2019,04,15,13,03,4.80
2019,04,15,13,04,4.80
2019,04,15,13,05,4.90
2019,04,15,13,06,4.90
2019,04,15,13,07,5.00
2019,04,15,13,08,5.00
2019,04,15,13,09,5.10
2019,04,15,13,10,5.10
2019,04,15,13,11,5.10
2019,04,15,13,12,5.10
2019,04,15,13,13,5.10
2019,04,15,13,14,5.20
2019,04,15,13,15,5.20
2019,04,15,13,16,5.20
2019,04,15,13,17,5.30
2019,04,15,13,18,5.30
2019,04,15,13,19,5.30
2019,04,15,13,20,5.30
2019,04,15,13,21,5.30
2019,04,15,13,22,5.30
2019,04,15,13,23,5.30
2019,04,15,13,24,5.30
2019,04,15,13,25,5.30
2019,04,15,13,26,5.30
2019,04,15,13,27,5.40
2019,04,15,13,28,5.40
2019,04,15,13,29,5.40
2019,04,15,13,30,5.40
2019,04,15,13,31,5.50
2019,04,15,13,32,5.50
2019,04,15,13,33,5.60
2019,04,15,13,34,5.60
2019,04,15,13,35,5.60
2019,04,15,13,36,5.70
2019,04,15,13,37,5.70
2019,04,15,13,38,5.70
2019,04,15,13,39,5.70
2019,04,15,13,40,5.80
2019,04,15,13,41,5.80
2019,04,15,13,42,5.90
2019,04,15,13,43,5.90
2019,04,15,13,44,5.90
2019,04,15,13,45,5.90
2019,04,15,13,46,5.90
2019,04,15,13,47,5.90
2019,04,15,13,48,5.90
2019,04,15,13,49,6.00
2019,04,15,13,50,6.00
2019,04,15,13,51,6.10
2019,04,15,13,52,6.10
2019,04,15,13,53,6.20
2019,04,15,13,54,6.20
2019,04,15,13,55,6.20
2019,04,15,13,56,6.30
2019,04,15,13,57,6.30
2019,04,15,13,58,6.30
2019,04,15,13,59,6.30
2019,04,15,14,00,6.30
2019,04,15,14,01,6.30
2019,04,15,14,02,6.30
2019,04,15,14,03,6.30
2019,04,15,14,04,6.30
2019,04,15,14,05,6.40
2019,04,15,14,06,6.40
2019,04,15,14,07,6.40
2019,04,15,14,08,6.50
2019,04,15,14,09,6.50
2019,04,15,14,10,6.60
2019,04,15,14,11,6.60
2019,04,15,14,12,6.70
2019,04,15,14,13,6.70
2019,04,15,14,14,6.70
2019,04,15,14,15,6.80
2019,04,15,14,16,6.80
2019,04,15,14,17,6.90
2019,04,15,14,18,7.00
2019,04,15,14,19,7.00
2019,04,15,14,20,7.00
2019,04,15,14,21,7.00
2019,04,15,14,22,7.00
2019,04,15,14,23,7.00
2019,04,15,14,24,6.90
2019,04,15,14,25,6.90
2019,04,15,14,26,6.90
2019,04,15,14,27,6.90
2019,04,15,14,28,6.90
2019,04,15,14,29,6.90
2019,04,15,14,30,6.80
2019,04,15,14,31,6.80
2019,04,15,14,32,6.80
2019,04,15,14,33,6.90
2019,04,15,14,34,6.90
2019,04,15,14,35,6.90
2019,04,15,14,36,7.00
2019,04,15,14,37,7.00
2019,04,15,14,38,7.10
2019,04,15,14,39,7.10
2019,04,15,14,40,7.10
2019,04,15,14,41,7.20
2019,04,15,14,42,7.20
2019,04,15,14,43,7.20
2019,04,15,14,44,7.30
2019,04,15,14,45,7.40
2019,04,15,14,46,7.50
2019,04,15,14,47,7.50
2019,04,15,14,48,7.60
2019,04,15,14,49,7.60
2019,04,15,14,50,7.70
2019,04,15,14,51,7.70
2019,04,15,14,52,7.70
2019,04,15,14,53,7.80
2019,04,15,14,54,7.80
2019,04,15,14,55,7.90
2019,04,15,14,56,8.00
2019,04,15,14,57,8.10
2019,04,15,14,58,8.10
2019,04,15,14,59,8.20
2019,04,15,15,00,8.20
2019,04,15,15,01,8.20
2019,04,15,15,02,8.20
2019,04,15,15,03,8.20
2019,04,15,15,04,8.20
2019,04,15,15,05,8.30
2019,04,15,15,06,8.30
2019,04,15,15,07,8.30
2019,04,15,15,08,8.40
2019,04,15,15,09,8.50
2019,04,15,15,10,8.50
2019,04,15,15,11,8.60
2019,04,15,15,12,8.70
2019,04,15,15,13,8.70
2019,04,15,15,14,8.80
2019,04,15,15,15,8.90
2019,04,15,15,16,8.90
2019,04,15,15,17,9.00
2019,04,15,15,18,9.10
2019,04,15,15,19,9.20
2019,04,15,15,20,9.20
2019,04,15,15,21,9.20
2019,04,15,15,22,9.10
2019,04,15,15,23,9.10
2019,04,15,15,24,9.10
2019,04,15,15,25,9.20
2019,04,15,15,26,9.20
2019,04,15,15,27,9.30
2019,04,15,15,28,9.30
2019,04,15,15,29,9.40
2019,04,15,15,30,9.50
2019,04,15,15,31,9.60
2019,04,15,15,32,9.60
2019,04,15,15,33,9.70
2019,04,15,15,34,9.80
2019,04,15,15,35,9.80
2019,04,15,15,36,9.80
2019,04,15,15,37,9.80
2019,04,15,15,38,9.70
2019,04,15,15,39,9.60
2019,04,15,15,40,9.50
2019,04,15,15,41,9.50
2019,04,15,15,42,9.40
2019,04,15,15,43,9.40
2019,04,15,15,44,9.30
2019,04,15,15,45,9.40
2019,04,15,15,46,9.40
2019,04,15,15,47,9.40
2019,04,15,15,48,9.40
2019,04,15,15,49,9.40
2019,04,15,15,50,9.50
2019,04,15,15,51,9.50
2019,04,15,15,52,9.50
2019,04,15,15,53,9.60
2019,04,15,15,54,9.50
2019,04,15,15,55,9.50
2019,04,15,15,56,9.50
2019,04,15,15,57,9.50
2019,04,15,15,58,9.50
2019,04,15,15,59,9.50
2019,04,15,16,00,9.60
2019,04,15,16,01,9.60
2019,04,15,16,02,9.70
2019,04,15,16,03,9.70
2019,04,15,16,04,9.80
2019,04,15,16,05,9.80
2019,04,15,16,06,9.80
2019,04,15,16,07,9.80
2019,04,15,16,08,9.80
2019,04,15,16,09,9.90
2019,04,15,16,10,9.90
2019,04,15,16,11,9.90
2019,04,15,16,12,10.00
2019,04,15,16,13,10.00
2019,04,15,16,14,10.00
2019,04,15,16,15,10.10
2019,04,15,16,16,10.00
2019,04,15,16,17,10.10
2019,04,15,16,18,10.10
2019,04,15,16,19,10.10
2019,04,15,16,20,10.10
2019,04,15,16,21,10.10
2019,04,15,16,22,10.10
2019,04,15,16,23,10.20
2019,04,15,16,24,10.20
2019,04,15,16,25,10.20
2019,04,15,16,26,10.10
2019,04,15,16,27,10.10
2019,04,15,16,28,10.10
2019,04,15,16,29,10.10
2019,04,15,16,30,10.10
2019,04,15,16,31,10.10
2019,04,15,16,32,10.10
2019,04,15,16,33,10.10
2019,04,15,16,34,10.10
2019,04,15,16,35,10.10
2019,04,15,16,36,10.10
2019,04,15,16,37,10.10
2019,04,15,16,38,10.10
2019,04,15,16,39,10.10
2019,04,15,16,40,10.20
2019,04,15,16,41,10.20
2019,04,15,16,42,10.20
2019,04,15,16,43,10.20
2019,04,15,16,44,10.10
2019,04,15,16,45,10.10
2019,04,15,16,46,10.10
2019,04,15,16,47,10.10
2019,04,15,16,48,10.20
2019,04,15,16,49,10.20
2019,04,15,16,50,10.20
2019,04,15,16,51,10.30
2019,04,15,16,52,10.30
2019,04,15,16,53,10.30
2019,04,15,16,54,10.30
2019,04,15,16,55,10.30
2019,04,15,16,56,10.30
2019,04,15,16,57,10.30
2019,04,15,16,58,10.30
2019,04,15,16,59,10.30
2019,04,15,17,00,10.30
2019,04,15,17,01,10.30
2019,04,15,17,02,10.30
2019,04,15,17,03,10.30
2019,04,15,17,04,10.30
2019,04,15,17,05,10.30
2019,04,15,17,06,10.30
2019,04,15,17,07,10.30
2019,04,15,17,08,10.30
2019,04,15,17,09,10.30
2019,04,15,17,10,10.30
2019,04,15,17,11,10.40
2019,04,15,17,12,10.40
2019,04,15,17,13,10.40
2019,04,15,17,14,10.40
2019,04,15,17,15,10.40
2019,04,15,17,16,10.40
2019,04,15,17,17,10.50
2019,04,15,17,18,10.50
2019,04,15,17,19,10.60
2019,04,15,17,20,10.60
2019,04,15,17,21,10.60
2019,04,15,17,22,10.60
2019,04,15,17,23,10.70
2019,04,15,17,24,10.70
2019,04,15,17,25,10.70
2019,04,15,17,26,10.70
2019,04,15,17,27,10.70
2019,04,15,17,28,10.70
2019,04,15,17,29,10.70
2019,04,15,17,30,10.60
2019,04,15,17,31,10.60
2019,04,15,17,32,10.60
2019,04,15,17,33,10.60
2019,04,15,17,34,10.60
2019,04,15,17,35,10.60